Showing default

QIANFAN-67, 62797

Orbit data source: Space-Track

QIANFAN-67, 62797 is a Chinese payload satellite in LEO that was launched on Thu, 23 Jan 2025 UTC via a CHANG ZHENG 6A launch vehicle from the Taiyaun Space Center, China (TSC). Payload-class satellites include a variety of spacecraft equipped with specific instruments for various scientific and technological missions. These include communications satellites like Starlink; space stations such as the ISS; scientific satellites like the Hubble; Earth observation satellites from companies like Planet Labs, Umbra, and HawkEye 360; GPS; miniature CubeSats for education and research; and military/defense satellites.

Loading next visibility...
Identifier
62797, 2025-016N
Orbit
LEO
Country
Flag of CNCN / PRC
Related business
Manufacturer
SECM
Mission
Operational Commercial Communications
Bus & Motor
QIANFAN, Unknown motor
Mass
267 kg wet, ~267 kg dry
Launch date (UTC)
2025-01-23 (9 months ago)
Launch vehicle
CHANG ZHENG 6A
Launch site
Taiyaun Space Center, China (TSC)
Object type
Payload
Rocket body
Debris
Shape & HBR
Box + 1 Pan, 1.3 m
Radar Cross Section
13.200 m², Large (>1 m²)

Expand to show TLE details & history
Last TLE update: 1 day ago

TLE from 1 day ago
0 QIANFAN-67
1 62797U 25016N   25306.47245300  .00000078  00000-0  10111-3 0  9998
2 62797  88.9739 107.2148 0016691 101.4581 258.8446 13.50971033 41827
Epoch: 2025-11-02T11:20Z
TLE epoch observation values (Epoch: 2025-11-02T11:20:19.939Z)
Latitude
0.00002°
Longitude
-104.85597°
Altitude
1,074.066 km
Speed
7.314 km/s
True Right ascension
07h 08m 51s
True Declination
0° 00' 00"
Sunlit
Object was in daylight at epoch
Visualization orbit readout
Latitude
Unknown
Longitude
Unknown
Altitude
Unknown
Speed
Unknown
Apparent Right ascension
Unknown
Apparent Declination
Unknown
Sunlit
N/A
Visualization observer readout
Local Sidereal Time
14:39:26
Azimuth
Unknown
Elevation
Unknown
Doppler factor
Unknown
Orbital elements
Apogee altitude
1,078.164 km
Perigee altitude
1,053.315 km
Semi-major axis
7,443.876 km
Eccentricity
0.00167
Inclination
88.9739°
RAAN
107.2148°
Arg. of periapsis
101.4581°
True anomaly
258.65703°
Mean anomaly
258.8446°
Eccentric anomaly
258.7508°
Mean motion
3.37944 °/min
Orbital period
106.53 mins
BSTAR
0.00010111
Loading maneuver chart data...
Computing Atmospheric mass density...
Loading historical data...
Loading historical data...
Loading historical data...
Loading historical data...
Loading historical data...
Loading historical data...
Loading historical data...

Documentation

Showing up to 5 results
|